Showing default

ORBCOMM FM 40, 33065

Orbit data source: Space-Track

ORBCOMM FM 40, 33065 is a payload satellite owned by Orbcomm (US) in LEO that was launched on Thu, 19 Jun 2008 UTC via a KOSMOS 11K65M launch vehicle from the Kapustin Yar Missile And Space Complex (KYMTR). Payload-class satellites include a variety of spacecraft equipped with specific instruments for various scientific and technological missions. These include communications satellites like Starlink; space stations such as the ISS; scientific satellites like the Hubble; Earth observation satellites from companies like Planet Labs, Umbra, and HawkEye 360; GPS; miniature CubeSats for education and research; and military/defense satellites.

Loading next visibility...
Identifier
33065, 2008-031F
Orbit
LEO
Country
Flag of USUS / ORB
Related business
Manufacturer
OHB/POLK
Mission
Non-operational Commercial Communications
Bus & Motor
STERKH, Unknown motor
Mass
115 kg wet, 115 kg dry
Launch date (UTC)
2008-06-19 (18 years ago)
Launch vehicle
KOSMOS 11K65M
Launch site
Kapustin Yar Missile And Space Complex (KYMTR)
Object type
Payload
Rocket body
Debris
Shape & HBR
Box + 1 Ant, 0.8 m
Radar Cross Section
2.947 m², Large (>1 m²)

Expand to show TLE details & history
Last TLE update: 6 hours ago

TLE from 6 hours ago
0 ORBCOMM FM 40
1 33065U 08031F   26168.83164529  .00001419  00000-0  19452-3 0  9999
2 33065  48.4429  20.3713 0005967 171.0825 284.3766 14.84067488968433
Epoch: 2026-06-17T19:57Z
TLE epoch observation values (Epoch: 2026-06-17T19:57:34.153Z)
Latitude
48.31201°
Longitude
-86.99664°
Altitude
620.428 km
Speed
7.555 km/s
True Right ascension
07h 53m 55s
True Declination
48° 08' 16"
Sunlit
Object was in daylight at epoch
Visualization orbit readout
Latitude
Unknown
Longitude
Unknown
Altitude
Unknown
Speed
Unknown
Apparent Right ascension
Unknown
Apparent Declination
Unknown
Sunlit
N/A
Visualization observer readout
Local Sidereal Time
13:12:21
Azimuth
Unknown
Elevation
Unknown
Doppler factor
Unknown
Orbital elements
Apogee altitude
621.701 km
Perigee altitude
613.352 km
Semi-major axis
6,995.664 km
Eccentricity
0.0006
Inclination
48.4429°
RAAN
20.3713°
Arg. of periapsis
171.0825°
True anomaly
284.31035°
Mean anomaly
284.3766°
Eccentric anomaly
284.34348°
Mean motion
3.70937 °/min
Orbital period
97.05 mins
BSTAR
0.00019452
Loading maneuver chart data...
Computing Atmospheric mass density...
Loading historical data...
Loading historical data...
Loading historical data...
Loading historical data...
Loading historical data...
Loading historical data...
Loading historical data...

Documentation

Showing up to 5 results
|